Location: Home
(42.5358°N, 72.7383°W)
Time: 21:19:37
(UTC-05:00)

Vanguard 2 Rocket - Pass Details

Date: 02 December 2021
Orbit: 554 x 3325 km, 32.9° (Epoch: 21 January)

Event Time Altitude Azimuth Distance (km) Brightness Sun altitude
Rises 00:10:06 0° 273° (W) 5,383 - -68.5°
Reaches altitude 10° 00:13:45 10° 263° (W) 4,750 - -68.3°
Maximum altitude 00:25:33 31° 209° (SSW) 4,174 - -67.4°
Drops below altitude 10° 00:41:11 10° 156° (SSE) 6,258 - -65.8°
Exits shadow 00:44:48 - 151° (SSE) 6,888 11.2 -65.4°
Sets 00:47:05 0° 148° (SSE) 7,292 11.4 -65.2°
